When you browse on this site, cookies collect data to enhance your experience and personalize the content and advertising you see.
Visit our Privacy Policy to learn more. By continuing to use the site, you agree to this use of cookies and data.
  • în România
  • Lista ţărilor
  • Pe 7 zile
  • Temperatura apei
  • Meteo pe hartă
  • Widget-uri
  • user-avatar
    Intrare

    Meteo pe oră la Szolnok

    Astăzi, 23 Ianuarie, Joi

    Timp Temperatura Precipitaţii Vânt Presiune Umiditate
    00:00 -1°C° 0 mm 1 m/s 765 mmHg 78%
    01:00 -3°C° 0 mm 2 m/s 766 mmHg 82%
    02:00 -3°C° 0 mm 2 m/s 766 mmHg 81%
    03:00 -3°C° 0 mm 2 m/s 766 mmHg 80%
    04:00 -3°C° 0 mm 2 m/s 766 mmHg 79%
    05:00 -3°C° 0 mm 2 m/s 767 mmHg 80%
    06:00 -3°C° 0 mm 2 m/s 767 mmHg 80%
    07:00 -3°C° 0 mm 2 m/s 768 mmHg 80%
    08:00 -2°C° 0 mm 2 m/s 768 mmHg 76%
    09:00 +1°C° 0 mm 2 m/s 769 mmHg 71%
    10:00 +2°C° 0 mm 2 m/s 769 mmHg 67%
    11:00 +3°C° 0 mm 2 m/s 769 mmHg 63%
    12:00 +4°C° 0 mm 2 m/s 769 mmHg 60%
    13:00 +5°C° 0 mm 2 m/s 768 mmHg 59%
    14:00 +4°C° 0 mm 2 m/s 768 mmHg 63%
    15:00 +3°C° 0 mm 2 m/s 768 mmHg 67%
    16:00 +2°C° 0 mm 2 m/s 768 mmHg 71%
    17:00 +1°C° 0 mm 2 m/s 767 mmHg 74%
    18:00 -1°C° 0 mm 2 m/s 767 mmHg 77%
    19:00 -1°C° 0 mm 2 m/s 767 mmHg 81%
    20:00 -2°C° 0 mm 2 m/s 767 mmHg 82%
    21:00 -2°C° 0 mm 2 m/s 767 mmHg 82%
    22:00 -2°C° 0 mm 2 m/s 767 mmHg 83%
    23:00 -2°C° 0 mm 2 m/s 767 mmHg 83%

    Mâine, 24 Ianuarie, Vineri

    Timp Temperatura Precipitaţii Vânt Presiune Umiditate
    00:00 -2°C° 0 mm 2 m/s 766 mmHg 83%
    01:00 0°C° 0 mm 1 m/s 766 mmHg 83%
    02:00 -1°C° 0 mm 1 m/s 766 mmHg 83%
    03:00 -1°C° 0 mm 1 m/s 765 mmHg 83%
    04:00 -1°C° 0 mm 1 m/s 765 mmHg 83%
    05:00 -1°C° 0 mm 1 m/s 765 mmHg 83%
    06:00 -1°C° 0 mm 1 m/s 765 mmHg 83%
    07:00 -1°C° 0 mm 1 m/s 765 mmHg 83%
    08:00 0°C° 0 mm 1 m/s 765 mmHg 78%
    09:00 +1°C° 0 mm 1 m/s 765 mmHg 73%
    10:00 +2°C° 0 mm 1 m/s 765 mmHg 67%
    11:00 +3°C° 0 mm 1 m/s 764 mmHg 63%
    12:00 +4°C° 0 mm 1 m/s 764 mmHg 59%
    13:00 +4°C° 0 mm 2 m/s 763 mmHg 55%
    14:00 +4°C° 0 mm 1 m/s 763 mmHg 59%
    15:00 +3°C° 0 mm 1 m/s 762 mmHg 62%
    16:00 +3°C° 0 mm 1 m/s 762 mmHg 65%
    17:00 +2°C° 0 mm 1 m/s 762 mmHg 68%
    18:00 +1°C° 0 mm 1 m/s 761 mmHg 70%
    19:00 0°C° 0 mm 1 m/s 761 mmHg 73%
    20:00 0°C° 0 mm 1 m/s 761 mmHg 73%
    21:00 0°C° 0 mm 1 m/s 761 mmHg 73%
    22:00 0°C° 0 mm 1 m/s 761 mmHg 74%
    23:00 -2°C° 0 mm 2 m/s 761 mmHg 74%

    Poimâine, 25 Ianuarie, Sâmbătă

    Timp Temperatura Precipitaţii Vânt Presiune Umiditate
    00:00 -2°C° 0 mm 2 m/s 761 mmHg 73%
    01:00 -2°C° 0 mm 2 m/s 761 mmHg 73%
    02:00 -2°C° 0 mm 2 m/s 760 mmHg 74%
    03:00 -2°C° 0 mm 2 m/s 760 mmHg 75%
    04:00 0°C° 0 mm 1 m/s 760 mmHg 76%
    05:00 0°C° 0 mm 1 m/s 760 mmHg 77%
    06:00 0°C° 0 mm 1 m/s 760 mmHg 78%
    07:00 0°C° 0 mm 1 m/s 760 mmHg 79%
    08:00 +1°C° 0 mm 1 m/s 760 mmHg 76%
    09:00 +2°C° 0 mm 1 m/s 761 mmHg 73%
    10:00 +2°C° 0 mm 2 m/s 761 mmHg 70%
    11:00 +3°C° 0 mm 2 m/s 760 mmHg 70%
    12:00 +5°C° 0 mm 1 m/s 760 mmHg 69%
    13:00 +5°C° 0 mm 1 m/s 760 mmHg 69%
    14:00 +5°C° 0 mm 1 m/s 760 mmHg 72%
    15:00 +4°C° 0 mm 1 m/s 759 mmHg 76%
    16:00 +4°C° 0 mm 1 m/s 759 mmHg 79%
    17:00 +4°C° 0.1 mm 1 m/s 759 mmHg 81%
    18:00 +3°C° 0.1 mm 1 m/s 759 mmHg 83%
    19:00 +3°C° 0.1 mm 1 m/s 759 mmHg 85%
    20:00 +3°C° 0.4 mm 1 m/s 759 mmHg 87%
    21:00 +3°C° 0.4 mm 1 m/s 759 mmHg 90%
    22:00 +3°C° 0.4 mm 1 m/s 759 mmHg 92%
    23:00 +3°C° 0.3 mm 1 m/s 759 mmHg 92%

    26 Ianuarie, Duminică

    Timp Temperatura Precipitaţii Vânt Presiune Umiditate
    00:00 +3°C° 0.3 mm 1 m/s 759 mmHg 91%
    01:00 +3°C° 0.3 mm 1 m/s 759 mmHg 91%
    02:00 +3°C° 0.1 mm 1 m/s 759 mmHg 91%
    03:00 +2°C° 0.1 mm 2 m/s 759 mmHg 90%
    04:00 +2°C° 0.1 mm 2 m/s 759 mmHg 89%
    05:00 +3°C° 0 mm 1 m/s 759 mmHg 89%
    06:00 +3°C° 0 mm 1 m/s 759 mmHg 89%
    07:00 +3°C° 0 mm 1 m/s 759 mmHg 89%
    08:00 +3°C° 0 mm 1 m/s 759 mmHg 88%
    09:00 +4°C° 0 mm 1 m/s 759 mmHg 87%
    10:00 +4°C° 0 mm 1 m/s 760 mmHg 86%
    11:00 +5°C° 0 mm 1 m/s 759 mmHg 84%
    12:00 +5°C° 0 mm 1 m/s 759 mmHg 82%
    13:00 +6°C° 0 mm 1 m/s 759 mmHg 79%
    14:00 +6°C° 0 mm 1 m/s 759 mmHg 81%
    15:00 +6°C° 0 mm 1 m/s 759 mmHg 83%
    16:00 +5°C° 0 mm 1 m/s 758 mmHg 85%
    17:00 +5°C° 0 mm 1 m/s 758 mmHg 87%
    18:00 +5°C° 0 mm 1 m/s 758 mmHg 89%
    19:00 +4°C° 0 mm 1 m/s 758 mmHg 91%
    20:00 +4°C° 0 mm 1 m/s 758 mmHg 91%
    21:00 +3°C° 0 mm 2 m/s 758 mmHg 91%
    22:00 +3°C° 0 mm 2 m/s 758 mmHg 92%
    23:00 +3°C° 0.1 mm 2 m/s 758 mmHg 92%

    27 Ianuarie, Luni

    Timp Temperatura Precipitaţii Vânt Presiune Umiditate
    00:00 +3°C° 0.1 mm 2 m/s 758 mmHg 93%
    01:00 +4°C° 0.1 mm 1 m/s 758 mmHg 94%
    02:00 +3°C° 0.3 mm 2 m/s 757 mmHg 94%
    03:00 +3°C° 0.3 mm 2 m/s 757 mmHg 95%
    04:00 +3°C° 0.3 mm 2 m/s 757 mmHg 95%
    05:00 +4°C° 0.2 mm 1 m/s 757 mmHg 95%
    06:00 +4°C° 0.2 mm 1 m/s 757 mmHg 95%
    07:00 +4°C° 0.2 mm 1 m/s 757 mmHg 96%
    08:00 +4°C° 0.1 mm 1 m/s 757 mmHg 95%
    09:00 +4°C° 0.1 mm 0 m/s 757 mmHg 94%
    10:00 +4°C° 0.1 mm 0 m/s 758 mmHg 93%
    11:00 +5°C° 0 mm 1 m/s 757 mmHg 92%
    12:00 +6°C° 0 mm 1 m/s 757 mmHg 91%
    13:00 +6°C° 0 mm 1 m/s 757 mmHg 90%
    14:00 +6°C° 0 mm 1 m/s 757 mmHg 89%
    15:00 +6°C° 0 mm 1 m/s 757 mmHg 89%
    16:00 +6°C° 0 mm 1 m/s 757 mmHg 89%
    17:00 +6°C° 0 mm 1 m/s 757 mmHg 90%
    18:00 +5°C° 0 mm 1 m/s 757 mmHg 91%
    19:00 +5°C° 0 mm 1 m/s 757 mmHg 92%
    20:00 +3°C° 0 mm 2 m/s 757 mmHg 92%
    21:00 +3°C° 0 mm 2 m/s 757 mmHg 93%
    22:00 +3°C° 0 mm 2 m/s 757 mmHg 93%
    23:00 +3°C° 0 mm 2 m/s 757 mmHg 93%

    28 Ianuarie, Marţi

    Timp Temperatura Precipitaţii Vânt Presiune Umiditate
    00:00 +2°C° 0 mm 2 m/s 757 mmHg 94%
    01:00 +2°C° 0 mm 2 m/s 756 mmHg 94%
    02:00 +2°C° 0 mm 2 m/s 756 mmHg 94%
    03:00 +2°C° 0 mm 2 m/s 756 mmHg 94%
    04:00 +2°C° 0 mm 2 m/s 756 mmHg 94%
    05:00 +1°C° 0 mm 3 m/s 755 mmHg 95%
    06:00 +1°C° 0 mm 3 m/s 755 mmHg 95%
    07:00 +1°C° 0 mm 3 m/s 755 mmHg 96%
    08:00 +1°C° 0 mm 4 m/s 755 mmHg 93%
    09:00 +3°C° 0 mm 4 m/s 755 mmHg 90%
    10:00 +3°C° 0 mm 5 m/s 754 mmHg 88%
    11:00 +4°C° 0 mm 6 m/s 754 mmHg 82%
    12:00 +5°C° 0 mm 6 m/s 753 mmHg 77%
    13:00 +6°C° 0 mm 7 m/s 752 mmHg 72%
    14:00 +7°C° 0 mm 6 m/s 752 mmHg 72%
    15:00 +7°C° 0 mm 6 m/s 752 mmHg 72%
    16:00 +7°C° 0 mm 6 m/s 752 mmHg 72%
    17:00 +7°C° 0 mm 6 m/s 752 mmHg 72%
    18:00 +7°C° 0 mm 6 m/s 752 mmHg 73%
    19:00 +7°C° 0 mm 6 m/s 752 mmHg 73%
    20:00 +7°C° 0 mm 5 m/s 752 mmHg 74%
    21:00 +7°C° 0 mm 5 m/s 752 mmHg 75%
    22:00 +7°C° 0 mm 5 m/s 752 mmHg 76%
    23:00 +7°C° 0 mm 4 m/s 752 mmHg 79%
    Arată mai mult